Location: Le Hiès Ruisseau
(43.3000°N, 0.4500°W)
Time: 12:23:36
(UTC+00:00)

Cosmos 1867 - Pass Details

Date: 28 January 2023
Orbit: 778 x 797 km, 65.0° (Epoch: 19 March)

Event Time Altitude Azimuth Distance (km) Brightness Sun altitude
Rises 17:35:15 0° 329° (NNW) 3,310 6.9 -5.4°
Reaches altitude 10° 17:37:45 10° 334° (NNW) 2,377 6.1 -5.9°
Maximum altitude 17:43:06 53° 51° (NE) 971 3.7 -6.8°
Drops below altitude 10° 17:48:25 10° 128° (SE) 2,359 5.7 -7.7°
Sets 17:50:53 0° 133° (SE) 3,283 6.5 -8.1°
